STARLINK-11449, 63012

Orbit data source: Space-Track

STARLINK-11449, 63012 is a payload satellite owned by SpaceX/Seattle (US) in LEO that was launched on Sat, 15 Feb 2025 UTC via an FALCON 9 launch vehicle from the Air Force Eastern Test Range (AFETR). Payload-class satellites include a variety of spacecraft equipped with specific instruments for various scientific and technological missions. These include communications satellites like Starlink; space stations such as the ISS; scientific satellites like the Hubble; Earth observation satellites from companies like Planet Labs, Umbra, and HawkEye 360; GPS; miniature CubeSats for education and research; and military/defense satellites.

Loading next visibility...
Identifier
63012, 2025-032H
Orbit
LEO
Country
Flag of USUS
Related business
Manufacturer
SpaceX/Seattle
Mission
Operational Commercial Communications
Bus & Motor
STARLINK V2MD, Unknown motor
Mass
960 kg wet, ~910 kg dry
Launch date (UTC)
2025-02-15 (1 year ago)
Launch vehicle
FALCON 9
Launch site
Air Force Eastern Test Range (AFETR)
Object type
Payload
Rocket body
Debris
Shape & HBR
Box + 2 Pan, 18.1 m
Radar Cross Section
36.964 m², Large (>1 m²)

Expand to show TLE details & history
Last TLE update: 1 day ago

TLE from 1 day ago
0 STARLINK-11449
1 63012U 25032H   26170.41728455  .00194720  00000-0  14839-2 0  9996
2 63012  43.0004 302.0942 0004717 293.0030  67.0340 15.70860788 78219
Epoch: 2026-06-19T10:00Z
TLE epoch observation values (Epoch: 2026-06-19T10:00:53.385Z)
Latitude
Longitude
-115.77479°
Altitude
354.969 km
Speed
7.699 km/s
True Right ascension
20h 08m 22s
True Declination
0° 00' 00"
Sunlit
Object was in full shadow at epoch
Visualization orbit readout
Latitude
Unknown
Longitude
Unknown
Altitude
Unknown
Speed
Unknown
Apparent Right ascension
Unknown
Apparent Declination
Unknown
Sunlit
N/A
Visualization observer readout
Local Sidereal Time
07:18:36
Azimuth
Unknown
Elevation
Unknown
Doppler factor
Unknown
Orbital elements
Apogee altitude
361.595 km
Perigee altitude
355.24 km
Semi-major axis
6,736.554 km
Eccentricity
0.00047
Inclination
43.0004°
RAAN
302.0942°
Arg. of periapsis
293.003°
True anomaly
67.08378°
Mean anomaly
67.034°
Eccentric anomaly
67.05889°
Mean motion
3.92542 °/min
Orbital period
91.71 mins
BSTAR
0.0014839
Loading maneuver chart data...
Computing Atmospheric mass density...
Loading historical data...
Loading historical data...
Loading historical data...
Loading historical data...
Loading historical data...
Loading historical data...
Loading historical data...

Documentation

Showing up to 5 results
|